TimeCST,TemperatureF,Dew PointF,Humidity,Sea Level PressureIn,VisibilityMPH,Wind Direction,Wind SpeedMPH,Gust SpeedMPH,PrecipitationIn,Events,Conditions,WindDirDegrees,DateUTC
12:15 AM,21.2,14.0,74,29.94,10.0,West,15.0,23.0,N/A,,Mostly Cloudy,270,2013-02-19 06:15:00
12:35 AM,21.2,12.2,68,29.95,10.0,WNW,20.7,28.8,N/A,,Scattered Clouds,300,2013-02-19 06:35:00
12:55 AM,21.0,12.0,68,29.99,10.0,WNW,16.1,29.9,N/A,,Clear,300,2013-02-19 06:55:00
1:55 AM,19.9,12.9,74,30.01,10.0,WNW,10.4,-,N/A,,Scattered Clouds,290,2013-02-19 07:55:00
2:55 AM,19.0,10.9,71,30.02,10.0,WNW,16.1,23.0,N/A,,Clear,290,2013-02-19 08:55:00
3:55 AM,18.0,10.0,71,30.04,10.0,WNW,16.1,28.8,N/A,,Partly Cloudy,300,2013-02-19 09:55:00
4:40 AM,17.6,10.4,73,30.01,10.0,WNW,16.1,25.3,N/A,,Mostly Cloudy,290,2013-02-19 10:40:00
4:55 AM,17.1,9.0,71,30.06,10.0,WNW,20.7,27.6,N/A,,Scattered Clouds,300,2013-02-19 10:55:00
5:51 AM,15.8,8.6,73,30.05,10.0,NW,17.3,24.2,N/A,,Mostly Cloudy,310,2013-02-19 11:51:00
5:55 AM,16.0,8.1,71,30.10,10.0,NW,15.0,25.3,N/A,,Mostly Cloudy,310,2013-02-19 11:55:00
6:55 AM,14.0,6.1,71,30.14,10.0,NW,18.4,26.5,N/A,,Overcast,310,2013-02-19 12:55:00
7:55 AM,14.0,6.1,71,30.18,10.0,WNW,20.7,28.8,N/A,,Overcast,300,2013-02-19 13:55:00
8:55 AM,15.1,7.0,70,30.20,10.0,WNW,16.1,20.7,N/A,,Overcast,290,2013-02-19 14:55:00
9:55 AM,16.0,6.1,65,30.22,10.0,West,19.6,29.9,N/A,,Overcast,280,2013-02-19 15:55:00
10:55 AM,19.0,8.1,62,30.24,10.0,WNW,15.0,25.3,N/A,,Overcast,290,2013-02-19 16:55:00
11:28 AM,19.4,8.6,63,30.19,10.0,WNW,18.4,28.8,N/A,,Scattered Clouds,300,2013-02-19 17:28:00
11:55 AM,21.0,8.1,57,30.25,10.0,WNW,18.4,29.9,N/A,,Scattered Clouds,300,2013-02-19 17:55:00
12:55 PM,23.0,8.1,53,30.25,10.0,WNW,18.4,29.9,N/A,,Partly Cloudy,300,2013-02-19 18:55:00
1:55 PM,24.1,8.1,51,30.25,10.0,WNW,17.3,24.2,N/A,,Clear,290,2013-02-19 19:55:00
2:55 PM,25.0,7.0,46,30.26,10.0,West,15.0,26.5,N/A,,Clear,280,2013-02-19 20:55:00
3:55 PM,26.1,5.0,41,30.27,10.0,WNW,18.4,27.6,N/A,,Clear,300,2013-02-19 21:55:00
4:55 PM,26.1,5.0,41,30.27,10.0,WNW,16.1,23.0,N/A,,Clear,300,2013-02-19 22:55:00
6:55 PM,21.9,5.0,48,30.30,10.0,WNW,9.2,-,N/A,,Clear,300,2013-02-20 00:55:00
7:55 PM,19.9,5.0,52,30.31,10.0,WNW,6.9,-,N/A,,Clear,300,2013-02-20 01:55:00
8:55 PM,18.0,5.0,57,30.32,10.0,NW,5.8,-,N/A,,Clear,310,2013-02-20 02:55:00
9:55 PM,16.0,5.0,62,30.36,10.0,WNW,5.8,-,N/A,,Clear,300,2013-02-20 03:55:00
10:55 PM,16.0,5.0,62,30.38,10.0,WNW,5.8,-,N/A,,Clear,290,2013-02-20 04:55:00
11:55 PM,15.8,3.2,58,30.32,10.0,NW,6.9,-,N/A,,Clear,320,2013-02-20 05:55:00